Regional Weather Roundup
Issued by NWS Little Rock, AR

Home | Current Version | Previous Version | Text Only | Print | Product List | Glossary On
Versions: 1 2 3 4 5 6 7 8 9 10 11 12 13 14 15 16 17 18 19 20 21 22 23 24 25 26 27
000
ASUS44 KLZK 231305
RWRLZK

WEATHER ROUNDUP FOR ARKANSAS
NATIONAL WEATHER SERVICE LITTLE ROCK AR
800 AM CDT WED APR 23 2014

NOTE: "FAIR" INDICATES FEW OR NO CLOUDS BELOW 12,000 FEET WITH NO
SIGNIFICANT WEATHER AND/OR OBSTRUCTIONS TO VISIBILITY.

ARZ001-003-010-029-231400-
NORTHWEST ARKANSAS

CITY           SKY/WX    TMP DP  RH WIND       PRES   REMARKS
FAYETTEVILLE   SUNNY     46  42  86 CALM      30.00R
FORT SMITH     SUNNY     56  46  69 E8        30.00R
HARRISON       SUNNY     52  39  61 SE8       30.04S
BENTONVILLE    SUNNY     55  36  47 SE9       30.01R
ROGERS         SUNNY     54  43  66 E12       30.01R
SILOAM SPGS    SUNNY     52  37  58 E6        30.00R
HIGHFILL       SUNNY     53  41  63 E3        30.00R
SPRINGDALE     MOSUNNY   54  39  58 E5        30.02R
$$

ARZ004-005-016-231400-
NORTH CENTRAL ARKANSAS

CITY           SKY/WX    TMP DP  RH WIND       PRES   REMARKS
BATESVILLE     SUNNY     50  45  81 W3        30.06R
FLIPPIN        SUNNY     46  37  71 CALM      30.06R
MTN HOME       SUNNY     55  38  52 E8        30.05R
$$

ARZ040-041-231400-
WEST CENTRAL ARKANSAS

CITY           SKY/WX    TMP DP  RH WIND       PRES   REMARKS
MENA           SUNNY     52  52 100 CALM      30.02R
MOUNT IDA      SUNNY     49  48  97 CALM      30.00R
$$

ARZ009-017-025-026-028-231400-
NORTHEAST ARKANSAS

CITY           SKY/WX    TMP DP  RH WIND       PRES   REMARKS
CORNING        FAIR      54  41  62 NE3       30.08R
JONESBORO      SUNNY     56  42  59 NE9       30.05S
NEWPORT        SUNNY     55  47  74 NE8       30.07R
WALNUT RIDGE   SUNNY     54  43  66 NE6       30.06R
BLYTHEVILLE    SUNNY     53  46  77 NE5       30.07R
$$

ARZ022-023-033-042-044-231400-
CENTRAL ARKANSAS

CITY           SKY/WX    TMP DP  RH WIND       PRES   REMARKS
LITTLE ROCK    MOSUNNY   57  49  74 CALM      30.05R
N LITTLE ROCK    N/A     60  47  63 E9        30.05R
JACKSONVILLE   SUNNY     56  48  72 NE5       30.05R
SEARCY         SUNNY     55  48  77 CALM      30.07R
HOT SPRINGS    SUNNY     56  51  84 CALM      30.03R
RUSSELLVILLE   SUNNY     60  41  49 VRB7      30.04R
CLINTON        FAIR      48  45  87 CALM      30.07R
$$

ARZ036-231400-
EAST ARKANSAS

CITY           SKY/WX    TMP DP  RH WIND       PRES   REMARKS
WEST MEMPHIS   SUNNY     57  46  66 NE7       30.04R
$$

ARZ050-053-066-070-073-231400-
SOUTHWEST ARKANSAS

CITY           SKY/WX    TMP DP  RH WIND       PRES   REMARKS
ARKADELPHIA    FAIR      58  51  77 NE5       30.03R
CAMDEN         SUNNY     55  52  88 MISG      30.02R
TEXARKANA      SUNNY     61  57  87 CALM      29.98R
EL DORADO      SUNNY     60  57  89 CALM      30.01R
DE QUEEN       SUNNY     55  53  93 E5        29.97R
$$

ARZ056-057-069-231400-
SOUTHEAST ARKANSAS

CITY           SKY/WX    TMP DP  RH WIND       PRES   REMARKS
PINE BLUFF     SUNNY     58  51  78 E5        30.04R
STUTTGART      SUNNY     57  46  67 E8        30.05R
MONTICELLO     SUNNY     57  51  80 NE3       30.03R

$$





USA.gov is the U.S. government's official web portal to all federal, state and local government web resources and services.